Location: Chilton Park
(37.7711°N, 100.0276°W)
Time: 09:26:39
(UTC+00:00)

Cosmos 1898 Rocket - Pass Details

Date: 09 July 2022
Orbit: 753 x 783 km, 74.0° (Epoch: 14 August)

Event Time Altitude Azimuth Distance (km) Brightness Sun altitude
Rises 07:24:53 0° 340° (NNW) 3,212 7.6 -29.2°
Reaches altitude 10° 07:27:15 10° 339° (NNW) 2,284 6.6 -29.1°
Enters shadow 07:31:27 59° 325° (NW) 874 3.8 -28.9°
